Regional Weather Roundup
Issued by NWS

Home | Current Version | Previous Version | Graphics & Text | Print | Product List | Glossary On
Versions: 1 2 3 4 5 6 7 8 9 10 11 12 13 14 15 16 17 18 19 20 21 22 23 24 25 26 27 28 29 30 31 32 33 34 35 36 37 38 39 40 41 42 43 44 45 46 47 48 49 50
000
ASUS43 KMKX 230520
RWRWI

WISCONSIN REGIONAL WEATHER ROUNDUP
NATIONAL WEATHER SERVICE MILWAUKEE/SULLIVAN WI
1100 PM CST SUN JAN 22 2017

NOTE: "FAIR" INDICATES FEW OR NO CLOUDS BELOW 12,000 FEET WITH NO
SIGNIFICANT WEATHER AND/OR OBSTRUCTIONS TO VISIBILITY.

WIZ001-002-006>008-014>016-023>028-230600-
NORTHWEST WISCONSIN

CITY           SKY/WX    TMP DP  RH WIND       PRES   REMARKS
SUPERIOR ARPT  CLOUDY    35  35 100 W5        29.74S WCI  31
ASHLAND        CLOUDY    34  34 100 SW3       29.74S FOG
HAYWARD        FOG       34  32  92 CALM      29.74R VSB 1/2
SIREN          FOG       35  35  99 CALM      29.76S VSB 1
CUMBERLAND     CLOUDY    34  32  93 W5        29.74S FOG     WCI  30
RICE LAKE      CLOUDY    35  35 100 W6        29.76S FOG     WCI  30
CHETEK         CLOUDY    35  35 100 CALM      29.75S FOG
LADYSMITH      FOG       35  34  98 W6        29.75S VSB 1/2 WCI  30
EAU CLAIRE     CLOUDY    35  34  96 W5        29.75S FOG     WCI  31
MENOMONIE        N/A    N/A N/A N/A MISG        N/A
NEW RICHMOND   FOG       35  35 100 W5        29.78R VSB 1   WCI  31
OSCEOLA        CLOUDY    36  36 100 W5        29.80R FOG     WCI  32
$$

WIZ003>005-009-010-017-018-230600-
NORTH CENTRAL WISCONSIN

CITY           SKY/WX    TMP DP  RH WIND       PRES   REMARKS
MANITOWISH WTR CLOUDY    32  32 100 CALM      29.70S FOG
ARBOR VITAE    CLOUDY    34  33  96 NW3       29.69F
WOODRUFF       CLOUDY    34  33  96 NW3       29.69F
RHINELANDER    CLOUDY    35  34  96 CALM      29.70R
EAGLE RIVER    CLOUDY    33  33 100 CALM      29.69R
LAND O LAKES   CLOUDY    33  33 100 NW3       29.70S
PHILLIPS       CLOUDY    33  33 100 CALM      29.70S
TOMAHAWK       CLOUDY    33  32  96 CALM      29.70S
MEDFORD        CLOUDY    33  33 100 W3        29.70S
MERRILL        CLOUDY    35  35 100 CALM        N/A
$$

WIZ029-030-035-036-043>047-230600-
CENTRAL WISCONSIN

CITY           SKY/WX    TMP DP  RH WIND       PRES   REMARKS
WAUSAU         CLOUDY    34  34 100 NW3       29.70R
MOSINEE        CLOUDY    34  34 100 NW3       29.72R
MARSHFIELD     FOG       34  33  96 W5        29.71R VSB 1/4 WCI  30
STEVENS POINT  FOG       34  34 100 CALM      29.72R VSB 3/4
WAUPACA        CLOUDY    38  37  95 CALM      29.73R
WAUTOMA        CLOUDY    35  35 100 NW7       29.74R FOG     WCI  29
WISC RAPIDS    CLOUDY    35  35 100 NW5       29.74R FOG     WCI  31
CAMP DOUGLAS   CLOUDY    36  34  93 W6        29.75R WCI  31
$$

WIZ011>013-019>022-031-037>040-048>050-230600-
NORTHEAST WISCONSIN

CITY           SKY/WX    TMP DP  RH WIND       PRES   REMARKS
ANTIGO         CLOUDY    33  33 100 N6        29.70R WCI  28
SHAWANO        CLOUDY    39  38  94 CALM      29.71R
OCONTO         CLOUDY    33  33  99 CALM      29.71R VSB 1/4
STURGEON BAY   FOG       34  34 100 CALM      29.72R VSB 1/2
GREEN BAY      FOG       37  37 100 CALM      29.72R VSB 1/2
MANITOWOC      CLOUDY    37  36  96 MISG      29.72R FOG
APPLETON       CLOUDY    34  34 100 W7        29.70R WCI  28
CLINTONVILLE   CLOUDY    36  36 100 CALM      29.72R
OSHKOSH        CLOUDY    36  34  92 W3        29.72R
$$

WIZ032>034-041-042-053>061-230600-
SOUTHWEST WISCONSIN

CITY           SKY/WX    TMP DP  RH WIND       PRES   REMARKS
LA CROSSE      CLOUDY    39  36  89 N7        29.76S FOG     WCI  34
SPARTA         CLOUDY    35  34  99 W3        29.77R
VIROQUA        CLOUDY    34  34 100 N3        29.75R
BOSCOBEL       CLOUDY    38  35  89 CALM      29.78R
PRAIRIE DU CHI CLOUDY    37  34  90 NW3       29.79R
PLATTEVILLE    CLOUDY    36  36 100 NW6       29.77R WCI  31
$$

WIZ056-057-062-063-064-067-068-230600-
SOUTH CENTRAL WISCONSIN

CITY           SKY/WX    TMP DP  RH WIND       PRES   REMARKS
REEDSBURG      CLOUDY    35  35 100 CALM      29.75R
BARABOO/DELLS  CLOUDY    35  35  99 NW3       29.75R FOG
LONE ROCK      CLOUDY    37  35  92 SW3       29.77R
MINERAL POINT  CLOUDY    36  36 100 NW3       29.75R FOG
MADISON        CLOUDY    36  36 100 NW3       29.75R FOG
MIDDLETON      CLOUDY    37  37 100 NW3       29.74R
WATERTOWN      CLOUDY    37  37 100 NW3       29.73R FOG
MONROE         CLOUDY    36  36 100 NW6       29.74R WCI  31
JANESVILLE     CLOUDY    37  37 100 CALM      29.74R
$$

WIZ051-052-058>065-066-070>072-230600-
SOUTHEAST WISCONSIN

CITY           SKY/WX    TMP DP  RH WIND       PRES   REMARKS
MILWAUKEE      CLOUDY    39  34  82 NW3       29.72R
WAUKESHA       CLOUDY    34  34 100 NW3       29.73R FOG
MILWAUKEE/TIMM CLOUDY    36  34  93 CALM      29.74R FOG
RACINE         FOG       37  36  96 E5        29.73R VSB 3/4 WCI  33
KENOSHA        FOG       37  35  92 N6        29.72R VSB 1/4 WCI  32
FOND DU LAC    CLOUDY    36  33  89 CALM      29.72R
SHEBOYGAN      CLOUDY    37  35  92 W7        29.71R WCI  32
WEST BEND      CLOUDY    36  36 100 CALM      29.72R FOG
JUNEAU         CLOUDY    35  34  98 NW5       29.73R FOG     WCI  31
$$

LSZ147-162-230600-
LAKE SUPERIOR

STATION/POSITION TIME  TEMP    WIND        PRES    WAVE
                       AIR SEA DIR/SP/G            HT/PER
                 (UTC) (F)     (DEG/KT/KT) (MB)    (FT/S)
DEVILS ISLAND    0500   35     210/  5/  6 1007.5R
PORT WING        0440   35     200/  3/  4 1007.1S
SAXON HARBOR     0440   33     170/  2/  2 1007.1R
$$

LMZ867-665-643>646-230600-
LAKE MICHIGAN

STATION/POSITION TIME  TEMP    WIND        PRES    WAVE
                       AIR SEA DIR/SP/G            HT/PER
                 (UTC) (F)     (DEG/KT/KT) (MB)    (FT/S)
NORTHPORT PIER   0440   34        CALM     1006.1R
SISTER BAY       0420   34        CALM       N/A
KEWAUNEE LAKESHO 0454   36      CALM  /  5 1005.7R
SHEBOYGAN LAKESH 0500   38     280/  2/  3 1006.6R
PORT WASHINGTON  0430   38      CALM  /  1 1007.5R
KENOSHA   LAKESH 0500   35      30/ 12/ 14 1006.8
$$

TC  - TEMPERATURE IN CELSIUS
VSB - VISIBILITY IN STATUTE MILES
WCI - WIND CHILL INDEX
HX  - HEAT INDEX





USA.gov is the U.S. government's official web portal to all federal, state and local government web resources and services.